Regional Weather Roundup
Issued by NWS Jackson, KY

Home | Current Version | Previous Version | Text Only | Print | Product List | Glossary On
Versions: 1 2 3 4 5 6 7 8 9 10 11 12 13 14 15 16 17 18 19 20 21 22 23 24 25 26 27 28 29 30 31 32 33 34 35 36 37 38 39 40 41 42 43 44 45 46 47 48 49 50
000
ASUS43 KJKL 292219
RWRJKL

EAST KENTUCKY HOURLY WEATHER ROUNDUP
NATIONAL WEATHER SERVICE JACKSON KY
500 PM EST THU JAN 29 2015

NOTE: "FAIR" INDICATES FEW OR NO CLOUDS BELOW 12,000 FEET WITH
NO SIGNIFICANT WEATHER AND/OR OBSTRUCTIONS TO VISIBILITY.

* THESE REPORTS ARE NOT UNDER NWS QUALITY CONTROL AND MAY NOT
  REPORT WEATHER SUCH AS PRECIPITATION AND FOG.

KYZ079-080-083-085-087-088-110-112-115-119-120-292300
...EASTERN KENTUCKY...

CITY           SKY/WX    TMP DP  RH WIND       PRES   REMARKS
JACKSON        CLOUDY    53  38  56 SW12G23   29.92R
LONDON         CLOUDY    58  36  43 W17G29    29.96R
SOMERSET*      CLOUDY    50  37  62 NW16      30.02R
MONTICELLO*    CLOUDY    52  40  63 NW14      30.04R
MIDDLESBORO*   CLOUDY    53  35  50 SW7       30.00R
HARLAN APT*    CLOUDY    52  32  46 W6        29.97R
HAZARD APT*    CLOUDY    55  37  50 SW9G16    29.93
BLACK MTN*       N/A     37  30  75 SW8         N/A  WCI  31
PIKEVILLE APT* CLOUDY    52  36  54 S3        29.92R
BIG SANDY*     CLOUDY    54  38  54 W9G20     29.90R
MOREHEAD APT*  CLOUDY    45  36  70 W12G24    29.98R
ASHLAND*       CLOUDY    48  39  71 W15       29.90R
$$

KYZ035-036-041-042-044-050-067-078-099-292300
...CENTRAL KENTUCKY...

CITY           SKY/WX    TMP DP  RH WIND       PRES   REMARKS
MT STERLING*   CLOUDY    43  36  75 NW18G26   30.00R
FLEMING/MASON* CLOUDY    42  34  75 NW20G25   29.98R
DANVILLE*      CLOUDY    43  34  70 NW14G25   30.04R
RICHMOND*      CLOUDY    45  34  65 W17G29    30.01R
LEXINGTON      CLOUDY    41  33  73 W23G32    30.02R
FRANKFORT      CLOUDY    40  33  76 W14G24    30.04R WCI  32
$$

KYZ091>093-OHZ055-061-077-WVZ005-015-034-035-042-292300
...SOUTHERN OHIO/WEST VIRGINIA...

CITY           SKY/WX    TMP DP  RH WIND       PRES   REMARKS
COVINGTON      DRIZZLE   36  32  87 W21G26    30.02R WCI  24
COLUMBUS       CLOUDY    37  32  82 W20G29    29.87R WCI  27
DAYTON         CLOUDY    35  31  85 W21G31    29.94R WCI  24
WILMINGTON     CLOUDY    36  30  79 W22G32    29.93R WCI  25
HUNTINGTON     CLOUDY    52  38  58 W13       29.87R
CHARLESTON     CLOUDY    49  35  58 S9        29.87S
PINEVILLE*     CLOUDY    49  37  62 MISG      29.97R
BECKLEY        MOCLDY    47  30  51 SW9G20    29.90S
BLUEFIELD      CLEAR     50  30  46 SW10G24   29.93R
$$

VAZ002-007-008-TNZ017-027-036-066-071-292300
...SOUTHWEST VIRGINIA/EAST TENNESSEE...

CITY           SKY/WX    TMP DP  RH WIND       PRES   REMARKS
WISE*          CLEAR     45  32  61 SW10      29.97R
JONESVILLE*    CLEAR     50  36  57 SW14G21   30.01R
ABINGDON*      CLEAR     49  31  49 W14       29.99R
BRISTOL        PTCLDY    48  32  53 CALM      30.00S
KNOXVILLE      MOSUNNY   54  35  48 SW23G30   30.02R
OAK RIDGE      SUNNY     56  34  43 VRB7G17   30.03R
CROSSVILLE     PTSUNNY   56  38  50 SW9G20    30.02R
NASHVILLE      PTSUNNY   54  40  59 NW20G29   30.08R
$$

...KEY TO REMARKS...
VSB - VISIBILITY IN MILES
WCI - WIND CHILL INDEX
HX  - HEAT INDEX

$$



USA.gov is the U.S. government's official web portal to all federal, state and local government web resources and services.